Date String (YYYY-MM-DD hh:mm:ss) UTC,Instrument flags,absolute air pressure of the measurement (hPa),sample flow rate (lpm),inlet stack bypass flow (lpm),air temperature of the measurement (°C),ambient temperature measured by the external sensor (°C),aerosol sample conditioner tube jacket temperature (°C),OPC LED temperature (°C),internal box temperature (°C),relative humidity of the measurement (%),span deviation,mass concentration of particles derived from Lorenz-Mie calculation of OPC scattering (μg/m³),mass concentration of particles derived from Lorenz-Mie calculation of OPC scattering (μg/m³),mass concentration of particles derived from Lorenz-Mie calculation of OPC scattering (μg/m³)
DateTimeUTC,F1_M11,P_M11,Q1_M11,Q2_M11,T1_M11,T2_M11,T3_M11,T4_M11,T5_M11,U1_M11,ZSPAN_M11,X0_M11,X2_M11,X1_M11
2024-03-09 21:00:00,SystemResetWarning,0830.0,5.00,000.00,021.0,020.5,000.0,029.2,022.8,10.7,0000.0,0008.04,0004.96,0004.59
2024-03-09 21:01:00,SystemResetWarning,0830.0,5.00,000.00,021.0,020.5,000.0,029.3,022.8,11.0,0000.0,0008.42,0004.97,0004.60
2024-03-09 21:02:00,SystemResetWarning,0830.0,5.00,000.00,021.0,020.5,000.0,029.3,022.8,11.6,0000.0,0008.75,0005.01,0004.61
2024-03-09 21:03:00,SystemResetWarning,0830.0,5.00,000.00,021.0,020.5,000.0,029.3,022.8,11.0,0000.0,0008.86,0005.00,0004.63
2024-03-09 21:04:00,SystemResetWarning,0830.0,5.00,000.00,021.0,020.5,000.0,029.3,022.8,10.6,0000.0,0009.10,0005.01,0004.66
2024-03-09 21:05:00,SystemResetWarning,0830.0,5.00,000.00,021.1,020.6,000.0,029.3,022.8,10.6,0000.0,0009.16,0005.03,0004.68
2024-03-09 21:06:00,SystemResetWarning,0830.0,5.01,000.00,021.1,020.5,000.0,029.3,022.8,10.4,0000.0,0009.23,0005.06,0004.70
2024-03-09 21:07:00,SystemResetWarning,0830.0,5.01,000.00,021.1,020.5,000.0,029.3,022.8,10.1,0000.0,0009.11,0005.08,0004.72
2024-03-09 21:08:00,SystemResetWarning,0830.0,5.01,000.00,021.1,020.5,000.0,029.3,022.8,09.9,0000.0,0009.14,0005.10,0004.73
2024-03-09 21:09:00,SystemResetWarning,0830.0,4.99,000.00,021.1,020.5,000.0,029.3,022.8,10.2,0000.0,0009.20,0005.14,0004.75
2024-03-09 21:10:00,SystemResetWarning,0830.0,5.00,000.00,021.1,020.6,000.0,029.4,022.8,10.0,0000.0,0009.16,0005.15,0004.77
2024-03-09 21:11:00,SystemResetWarning,0829.9,4.99,000.00,021.1,020.6,000.0,029.4,022.8,10.2,0000.0,0009.22,0005.17,0004.78
2024-03-09 21:12:00,SystemResetWarning,0829.9,5.00,000.00,021.1,020.6,000.0,029.4,022.8,09.8,0000.0,0009.46,0005.17,0004.79
2024-03-09 21:13:00,SystemResetWarning,0829.9,4.99,000.00,021.1,020.6,000.0,029.4,022.9,09.7,0001.5,0009.91,0005.16,0004.80
2024-03-09 21:14:00,SystemResetWarning,0829.9,4.99,000.00,021.1,020.6,000.0,029.4,022.9,09.3,0000.0,0009.89,0005.19,0004.81
2024-03-09 21:15:00,SystemResetWarning,0829.9,5.01,000.00,021.1,020.6,000.0,029.4,022.9,09.4,0005.1,0009.59,0005.20,0004.82
2024-03-09 21:16:00,SystemResetWarning,0829.9,5.00,000.00,021.1,020.6,000.0,029.4,022.9,09.5,0007.0,0009.57,0005.18,0004.81
2024-03-09 21:17:00,SystemResetWarning,0829.8,5.00,000.00,021.2,020.6,000.0,029.4,022.9,09.9,0005.9,0010.37,0005.18,0004.81
2024-03-09 21:18:00,SystemResetWarning,0829.8,5.00,000.00,021.2,020.7,000.0,029.4,022.9,10.0,0000.0,0010.68,0005.17,0004.79
2024-03-09 21:19:00,SystemResetWarning,0829.8,5.00,000.00,021.2,020.7,000.0,029.5,022.9,10.0,0000.0,0010.66,0005.16,0004.78
2024-03-09 21:20:00,SystemResetWarning,0829.8,4.99,000.00,021.2,020.7,000.0,029.5,023.0,10.0,0000.0,0010.78,0005.15,0004.76
2024-03-09 21:21:00,SystemResetWarning,0829.8,5.00,000.00,021.2,020.7,000.0,029.5,023.0,10.2,0000.0,0011.03,0005.17,0004.76
2024-03-09 21:22:00,SystemResetWarning,0829.8,5.01,000.00,021.2,020.7,000.0,029.5,023.0,11.0,0000.0,0011.10,0005.21,0004.78
2024-03-09 21:23:00,SystemResetWarning,0829.8,5.01,000.00,021.2,020.7,000.0,029.5,023.0,10.8,0000.0,0010.79,0005.21,0004.79
2024-03-09 21:24:00,SystemResetWarning,0829.8,5.00,000.00,021.3,020.8,000.0,029.5,023.0,10.5,0000.0,0009.99,0005.24,0004.80
2024-03-09 21:25:00,SystemResetWarning,0829.8,5.01,000.00,021.3,020.8,000.0,029.5,023.0,10.2,0000.0,0010.53,0005.25,0004.80
2024-03-09 21:26:00,SystemResetWarning,0829.7,5.00,000.00,021.3,020.8,000.0,029.5,023.0,10.3,0000.0,0010.56,0005.25,0004.81
2024-03-09 21:27:00,SystemResetWarning,0829.7,5.00,000.00,021.3,020.8,000.0,029.5,023.1,10.5,0000.0,0010.65,0005.26,0004.82
2024-03-09 21:28:00,SystemResetWarning,0829.7,5.00,000.00,021.3,020.8,000.0,029.6,023.1,10.8,0000.0,0010.06,0005.27,0004.84
2024-03-09 21:29:00,SystemResetWarning,0829.7,4.99,000.00,021.3,020.8,000.0,029.6,023.1,09.8,0000.0,0009.54,0005.27,0004.85
2024-03-09 21:30:00,SystemResetWarning,0829.7,4.99,000.00,021.3,020.8,000.0,029.6,023.1,09.8,0000.0,0009.55,0005.31,0004.89
2024-03-09 21:31:00,SystemResetWarning,0829.7,5.00,000.00,021.3,020.8,000.0,029.6,023.1,10.0,0000.0,0009.60,0005.33,0004.92
2024-03-09 21:32:00,SystemResetWarning,0829.7,4.99,000.00,021.4,020.8,000.0,029.6,023.1,09.9,0000.0,0009.45,0005.31,0004.93
2024-03-09 21:33:00,SystemResetWarning,0829.6,5.00,000.00,021.4,020.9,000.0,029.6,023.1,10.0,0000.0,0009.58,0005.31,0004.93
2024-03-09 21:34:00,SystemResetWarning,0829.7,5.01,000.00,021.4,020.9,000.0,029.6,023.1,10.3,0000.0,0009.81,0005.34,0004.97
2024-03-09 21:35:00,SystemResetWarning,0829.7,5.00,000.00,021.4,020.9,000.0,029.7,023.1,10.3,0000.0,0009.66,0005.37,0005.00
2024-03-09 21:36:00,SystemResetWarning,0829.7,4.99,000.00,021.4,020.9,000.0,029.7,023.2,10.1,0000.0,0008.92,0005.39,0005.03
2024-03-09 21:37:00,SystemResetWarning,0829.7,5.00,000.00,021.4,020.9,000.0,029.7,023.2,10.3,0000.0,0009.35,0005.43,0005.05
2024-03-09 21:38:00,SystemResetWarning,0829.7,5.00,000.00,021.4,020.9,000.0,029.7,023.2,10.0,0000.0,0009.63,0005.47,0005.09
2024-03-09 21:39:00,SystemResetWarning,0829.7,5.00,000.00,021.4,021.0,000.0,029.7,023.2,10.6,0000.0,0009.62,0005.50,0005.11
2024-03-09 21:40:00,SystemResetWarning,0829.7,4.99,000.00,021.5,021.0,000.0,029.7,023.2,10.5,0000.0,0009.74,0005.55,0005.12
2024-03-09 21:41:00,SystemResetWarning,0829.7,4.99,000.00,021.5,021.0,000.0,029.7,023.2,10.2,0000.0,0009.79,0005.56,0005.13
2024-03-09 21:42:00,SystemResetWarning,0829.7,5.01,000.00,021.5,021.0,000.0,029.7,023.2,10.4,0000.0,0009.77,0005.57,0005.12
2024-03-09 21:43:00,SystemResetWarning,0829.7,5.01,000.00,021.5,021.0,000.0,029.8,023.3,10.2,0000.0,0009.63,0005.58,0005.12
2024-03-09 21:44:00,SystemResetWarning,0829.7,5.01,000.00,021.5,021.0,000.0,029.8,023.3,10.1,0000.0,0009.62,0005.58,0005.14
2024-03-09 21:45:00,SystemResetWarning,0829.7,4.99,000.00,021.5,021.0,000.0,029.8,023.3,10.0,0000.0,0009.26,0005.58,0005.15
2024-03-09 21:46:00,SystemResetWarning,0829.7,5.00,000.00,021.5,021.0,000.0,029.8,023.3,09.7,0000.0,0009.36,0005.59,0005.16
2024-03-09 21:47:00,SystemResetWarning,0829.7,5.00,000.00,021.5,021.0,000.0,029.8,023.3,09.9,0000.0,0009.43,0005.61,0005.17
2024-03-09 21:48:00,SystemResetWarning,0829.7,4.99,000.00,021.6,021.0,000.0,029.8,023.3,10.2,0000.0,0009.39,0005.65,0005.20
2024-03-09 21:49:00,SystemResetWarning,0829.7,5.00,000.00,021.6,021.0,000.0,029.8,023.3,10.1,0000.0,0008.83,0005.66,0005.21
2024-03-09 21:50:00,SystemResetWarning,0829.7,5.01,000.00,021.6,021.0,000.0,029.8,023.3,09.6,0000.0,0008.71,0005.68,0005.25
2024-03-09 21:51:00,SystemResetWarning,0829.7,5.00,000.00,021.6,021.0,000.0,029.9,023.3,09.5,0000.0,0008.64,0005.69,0005.29
2024-03-09 21:52:00,SystemResetWarning,0829.7,4.99,000.00,021.6,021.0,000.0,029.9,023.3,09.6,0000.0,0008.66,0005.73,0005.33
2024-03-09 21:53:00,SystemResetWarning,0829.7,4.99,000.00,021.6,021.0,000.0,029.9,023.3,09.3,0000.0,0008.71,0005.76,0005.36
2024-03-09 21:54:00,SystemResetWarning,0829.7,5.00,000.00,021.6,021.0,000.0,029.9,023.3,09.4,0000.0,0009.06,0005.81,0005.41
2024-03-09 21:55:00,SystemResetWarning,0829.7,5.00,000.00,021.6,020.9,000.0,029.9,023.3,09.5,0000.0,0009.58,0005.89,0005.45
2024-03-09 21:56:00,SystemResetWarning,0829.7,5.00,000.00,021.6,020.9,000.0,029.9,023.3,09.5,0000.0,0009.65,0005.91,0005.47
2024-03-09 21:57:00,SystemResetWarning,0829.6,5.00,000.00,021.6,021.0,000.0,029.9,023.3,09.6,0000.0,0009.69,0005.93,0005.48
2024-03-09 21:58:00,SystemResetWarning,0829.6,5.00,000.00,021.6,021.0,000.0,029.9,023.3,09.5,0000.0,0009.82,0005.96,0005.50
2024-03-09 21:59:00,SystemResetWarning,0829.6,5.00,000.00,021.6,021.0,000.0,029.9,023.3,09.6,0000.0,0009.81,0005.92,0005.50
